HB9KBJ-4 Weather Reports


Display with metric or nautical units.
time (UTC)temp
F
wind
direction
speed
MPH
gust
MPH
rain 1hr
in
rain 24hr
in
rain mn
in
humidity
%
barometer
mb
20260503035305 50 207 0.0 2.0 0.00 0.00 0.00 63
20260503034805 50 198 1.0 3.0 0.00 0.00 0.00 63
20260503033804 50 0 0.0 0.0 0.00 0.00 0.00 64
20260503033304 50 0 0.0 0.0 0.00 0.00 0.00 65
20260503032304 51 0 0.0 0.0 0.00 0.00 0.00 66
20260503031803 51 0 0.0 0.0 0.00 0.00 0.00 67
20260503031302 51 0 0.0 0.0 0.00 0.00 0.00 66
20260503030802 51 0 0.0 0.0 0.00 0.00 0.00 66
20260503030302 50 273 0.0 2.0 0.00 0.00 0.00 66
20260503025802 51 215 1.0 2.0 0.00 0.00 0.00 67
20260503025301 52 0 0.0 0.0 0.00 0.00 0.00 67
20260503024801 51 0 0.0 0.0 0.00 0.00 0.00 67
20260503023800 52 0 0.0 0.0 0.00 0.00 0.00 67
20260503023300 52 0 0.0 0.0 0.00 0.00 0.00 67
20260503022800 52 0 0.0 0.0 0.00 0.00 0.00 68
20260503021759 52 0 0.0 0.0 0.00 0.00 0.00 66
20260503020258 52 0 0.0 0.0 0.00 0.00 0.00 68
20260503015758 52 0 0.0 0.0 0.00 0.00 0.00 66
20260503015258 52 0 0.0 0.0 0.00 0.00 0.00 66
20260503014758 52 0 0.0 0.0 0.00 0.00 0.00 66
20260503014257 52 0 0.0 0.0 0.00 0.00 0.00 67
20260503013757 52 0 0.0 0.0 0.00 0.00 0.00 67
20260503013257 52 0 0.0 0.0 0.00 0.00 0.00 67
20260503012757 53 0 0.0 0.0 0.00 0.00 0.00 67
20260503012256 53 0 0.0 0.0 0.00 0.00 0.00 66
20260503011756 53 0 0.0 0.0 0.00 0.00 0.00 66
20260503011256 53 0 0.0 0.0 0.00 0.00 0.00 66
20260503010755 53 0 0.0 0.0 0.00 0.00 0.00 66
20260503005755 53 200 0.0 5.0 0.00 0.00 0.00 67
20260503005255 53 207 2.0 3.0 0.00 0.00 0.00 67
20260503004754 54 0 0.0 0.0 0.00 0.00 0.00 67
20260503004254 53 0 0.0 0.0 0.00 0.00 0.00 67
20260503003754 53 0 0.0 0.0 0.00 0.00 0.00 68
20260503003253 53 0 0.0 0.0 0.00 0.00 0.00 68
20260503002753 54 0 0.0 0.0 0.00 0.00 0.00 69
20260503002253 53 0 0.0 0.0 0.00 0.00 0.00 68
20260503001753 54 0 0.0 0.0 0.00 0.00 0.00 69
20260503001252 54 214 0.0 1.0 0.00 0.00 0.00 69
20260503000252 55 259 0.0 2.0 0.00 0.00 0.00 69
20260502235751 55 0 0.0 0.0 0.00 0.00 0.00 69
20260502235251 55 0 0.0 0.0 0.00 0.00 0.00 69
20260502234751 55 0 0.0 0.0 0.00 0.00 0.00 69
20260502234251 55 0 0.0 0.0 0.00 0.00 0.00 69
20260502233750 55 0 0.0 0.0 0.00 0.00 0.00 68
20260502233250 55 0 0.0 0.0 0.00 0.00 0.00 68
20260502232750 55 269 0.0 2.0 0.00 0.00 0.00 68
20260502232250 55 0 0.0 0.0 0.00 0.00 0.00 68
20260502231749 55 0 0.0 0.0 0.00 0.00 0.00 68
20260502231249 55 0 0.0 0.0 0.00 0.00 0.00 68
20260502230749 55 0 0.0 0.0 0.00 0.00 0.00 68
20260502230248 55 0 0.0 0.0 0.00 0.00 0.00 68
20260502225748 55 0 0.0 0.0 0.00 0.00 0.00 67
20260502224747 56 0 0.0 0.0 0.00 0.00 0.00 67
20260502224247 56 0 0.0 0.0 0.00 0.00 0.00 67
20260502223747 56 255 0.0 2.0 0.00 0.00 0.00 66
20260502223247 56 0 0.0 0.0 0.00 0.00 0.00 66
20260502222746 57 0 0.0 0.0 0.00 0.00 0.00 65
20260502222246 57 0 0.0 0.0 0.00 0.00 0.00 65
20260502221746 57 0 0.0 0.0 0.00 0.00 0.00 65
20260502221245 57 0 0.0 0.0 0.00 0.00 0.00 65
20260502220745 57 0 0.0 0.0 0.00 0.00 0.00 65
20260502215745 57 0 0.0 0.0 0.00 0.00 0.00 64
20260502215244 58 0 0.0 0.0 0.00 0.00 0.00 64
20260502214244 57 201 0.0 1.0 0.00 0.00 0.00 63
20260502213743 58 212 0.0 2.0 0.00 0.00 0.00 63
20260502212743 58 0 0.0 0.0 0.00 0.00 0.00 62
20260502212243 59 0 0.0 0.0 0.00 0.00 0.00 62
20260502211242 59 0 0.0 0.0 0.00 0.00 0.00 61
20260502210742 59 0 0.0 0.0 0.00 0.00 0.00 61
20260502210242 60 0 0.0 0.0 0.00 0.00 0.00 61
20260502205741 60 249 1.0 2.0 0.00 0.00 0.00 60
20260502205241 60 263 1.0 3.0 0.00 0.00 0.00 60
20260502204741 60 250 0.0 2.0 0.00 0.00 0.00 60
20260502204240 60 0 0.0 0.0 0.00 0.00 0.00 60
20260502203740 61 0 0.0 0.0 0.00 0.00 0.00 60
20260502203240 61 0 0.0 0.0 0.00 0.00 0.00 59
20260502201739 62 215 0.0 1.0 0.00 0.00 0.00 58
20260502201239 62 246 1.0 4.0 0.00 0.00 0.00 58
20260502200738 62 0 0.0 0.0 0.00 0.00 0.00 57
20260502200238 63 0 0.0 0.0 0.00 0.00 0.00 57
20260502195738 63 0 0.0 0.0 0.00 0.00 0.00 57
20260502195238 63 0 0.0 0.0 0.00 0.00 0.00 57
20260502194737 64 0 0.0 0.0 0.00 0.00 0.00 56
20260502194237 64 0 0.0 0.0 0.00 0.00 0.00 56
20260502193737 64 240 2.0 4.0 0.00 0.00 0.00 56
20260502193236 63 249 0.0 2.0 0.00 0.00 0.00 55
20260502192236 64 0 0.0 0.0 0.00 0.00 0.00 54
20260502191736 64 190 0.0 0.0 0.00 0.00 0.00 54
20260502191235 64 72 0.0 1.0 0.00 0.00 0.00 53
20260502190735 64 0 0.0 0.0 0.00 0.00 0.00 53
20260502185734 65 0 0.0 0.0 0.00 0.00 0.00 53
20260502185234 65 0 0.0 0.0 0.00 0.00 0.00 53
20260502184234 65 0 0.0 0.0 0.00 0.00 0.00 52
20260502183233 66 0 0.0 0.0 0.00 0.00 0.00 51
20260502182733 66 0 0.0 0.0 0.00 0.00 0.00 50
20260502182233 66 0 0.0 0.0 0.00 0.00 0.00 50
20260502181732 67 0 0.0 0.0 0.00 0.00 0.00 49
20260502181232 67 0 0.0 0.0 0.00 0.00 0.00 49
20260502180231 67 76 0.0 2.0 0.00 0.00 0.00 49
20260502170228 69 32 2.0 5.0 0.00 0.00 0.00 46
20260502164227 71 28 1.0 6.0 0.00 0.00 0.00 44
20260502163727 71 18 1.0 5.0 0.00 0.00 0.00 44
20260502163226 71 117 2.0 7.0 0.00 0.00 0.00 43
20260502162726 72 4 1.0 6.0 0.00 0.00 0.00 42
20260502161725 72 107 1.0 6.0 0.00 0.00 0.00 42
20260502161225 72 90 0.0 5.0 0.00 0.00 0.00 41
20260502160725 74 73 0.0 1.0 0.00 0.00 0.00 41
20260502160225 74 214 1.0 5.0 0.00 0.00 0.00 41
20260502152222 77 129 3.0 10.0 0.00 0.00 0.00 34
20260502151722 78 134 1.0 7.0 0.00 0.00 0.00 34
20260502151222 79 51 2.0 5.0 0.00 0.00 0.00 34
20260502150721 79 312 1.0 4.0 0.00 0.00 0.00 34
20260502150221 79 89 2.0 8.0 0.00 0.00 0.00 34
20260502130715 79 66 2.0 5.0 0.00 0.00 0.00 32
20260502130214 79 89 1.0 6.0 0.00 0.00 0.00 32
20260502123713 78 14 2.0 7.0 0.00 0.00 0.00 33
20260502123212 77 86 2.0 8.0 0.00 0.00 0.00 32
20260502122712 78 91 1.0 7.0 0.00 0.00 0.00 34
20260502122212 78 49 3.0 8.0 0.00 0.00 0.00 32
20260502120711 77 325 2.0 4.0 0.00 0.00 0.00 35
20260502120211 76 58 3.0 7.0 0.00 0.00 0.00 34
20260502115711 77 31 2.0 5.0 0.00 0.00 0.00 34
20260502115210 76 86 2.0 5.0 0.00 0.00 0.00 35
20260502114710 75 302 2.0 6.0 0.00 0.00 0.00 36
20260502114210 74 94 0.0 3.0 0.00 0.00 0.00 38
20260502113709 74 321 2.0 5.0 0.00 0.00 0.00 39
20260502113209 73 113 2.0 6.0 0.00 0.00 0.00 40
20260502112209 71 34 1.0 4.0 0.00 0.00 0.00 43
20260502111208 70 4 2.0 8.0 0.00 0.00 0.00 44
20260502110708 69 91 2.0 7.0 0.00 0.00 0.00 43
20260502110207 69 87 2.0 9.0 0.00 0.00 0.00 45
20260502105707 69 28 2.0 6.0 0.00 0.00 0.00 46
20260502105207 68 56 2.0 5.0 0.00 0.00 0.00 47
20260502104707 68 28 1.0 4.0 0.00 0.00 0.00 49
20260502104206 67 72 1.0 6.0 0.00 0.00 0.00 49
20260502103706 66 84 2.0 6.0 0.00 0.00 0.00 50
20260502102706 65 25 2.0 5.0 0.00 0.00 0.00 50
20260502101705 63 77 1.0 5.0 0.00 0.00 0.00 53
20260502100203 62 25 1.0 4.0 0.00 0.00 0.00 55
20260502090700 57 335 0.0 2.0 0.00 0.00 0.00 60
20260502090200 57 100 1.0 5.0 0.00 0.00 0.00 61
20260502064652 49 0 0.0 0.0 0.00 0.00 0.00 76
20260502064152 49 0 0.0 0.0 0.00 0.00 0.00 75
20260502063652 49 0 0.0 0.0 0.00 0.00 0.00 76
20260502063152 49 0 0.0 0.0 0.00 0.00 0.00 76
20260502062651 49 0 0.0 0.0 0.00 0.00 0.00 75
20260502062151 48 0 0.0 0.0 0.00 0.00 0.00 75
20260502055650 48 90 0.0 2.0 0.00 0.00 0.00 75
20260502055149 48 75 0.0 2.0 0.00 0.00 0.00 76
20260502054149 48 0 0.0 0.0 0.00 0.00 0.00 75
20260502053148 48 283 0.0 2.0 0.00 0.00 0.00 74
20260502050647 48 0 0.0 0.0 0.00 0.00 0.00 74
20260502050146 48 0 0.0 0.0 0.00 0.00 0.00 74
20260502045146 48 0 0.0 0.0 0.00 0.00 0.00 74
20260502044145 48 0 0.0 0.0 0.00 0.00 0.00 73
20260502043145 48 0 0.0 0.0 0.00 0.00 0.00 73
20260502042644 48 0 0.0 0.0 0.00 0.00 0.00 73
20260502042144 48 0 0.0 0.0 0.00 0.00 0.00 74
20260502041644 48 0 0.0 0.0 0.00 0.00 0.00 73
20260502040643 48 0 0.0 0.0 0.00 0.00 0.00 72
20260502040143 48 0 0.0 0.0 0.00 0.00 0.00 73